This demonstration page uses our WeatherBlox Daily Observations layout. Learn more.

Left ArrowRight Arrow

41.12389, -100.76542

Hourly Observations for July 17, 2015

Temp ( °F °C ) Dew Point ( °F °C ) Humidity (%) Winds ( mph kmh ) Pressure ( in mb ) Visibility ( mi km ) Precip ( " mm )
12:53 am 00:53 Clear 65 18.3 61 16.1 87 87 Calm 29.78 1008 10 16 0.00 0.00
1:53 am 01:53 Clear 65 18.3 59 15 81 81 Calm 29.77 1008 10 16 0.00 0.00
2:53 am 02:53 Clear 63 17.2 58 14.4 84 84 E 5 7 29.76 1008 10 16 0.00 0.00
3:53 am 03:53 Clear 62 16.7 58 14.4 86 86 Calm 29.74 1007 10 16 0.00 0.00
4:53 am 04:53 Clear 60 15.6 58 14.4 93 93 Calm 29.74 1007 10 16 0.00 0.00
5:53 am 05:53 Clear 60 15.6 57 13.9 90 90 Calm 29.75 1007 10 16 0.00 0.00
6:53 am 06:53 Sunny 61 16.1 58 14.4 90 90 NNW 3 6 29.75 1008 10 16 0.00 0.00
7:53 am 07:53 Sunny 66 18.9 61 16.1 84 84 Calm 29.76 1008 10 16 0.00 0.00
8:53 am 08:53 Sunny 72 22.2 61 16.1 68 68 S 6 9 29.76 1008 10 16 0.00 0.00
9:53 am 09:53 Sunny 79 26.1 60 15.6 52 52 SW 6 9 29.75 1008 10 16 0.00 0.00
10:53 am 10:53 Sunny 83 28.3 59 15 44 44 WSW 7 11 29.74 1007 10 16 0.00 0.00
11:53 am 11:53 Sunny 88 31.1 62 16.7 42 42 VRB 5 7 29.73 1007 10 16 0.00 0.00
12:53 pm 12:53 Sunny 91 32.8 61 16.1 37 37 WSW 5 7 29.72 1006 10 16 0.00 0.00
1:53 pm 13:53 Sunny 94 34.4 56 13.3 28 28 S 5 7 29.70 1006 10 16 0.00 0.00
2:53 pm 14:53 Sunny 96 35.6 59 15 29 29 Calm 29.67 1005 10 16 0.00 0.00
3:53 pm 15:53 Sunny 97 36.1 61 16.1 30 30 ESE 12 19 29.64 1004 10 16 0.00 0.00
4:16 pm 16:16 Partly Cloudy with Nearby Thunderstorms 91 33 64 18 41 41 E 10 17 29.50 999 10 16 0.00 0.00
4:29 pm 16:29 Mostly Cloudy with Thunderstorms 88 31.1 65 18.3 46 46 SSE 13 20 29.53 1000 10 16 0.00 0.03
4:53 pm 16:53 Cloudy with Thunderstorms 74 23.3 61 16.1 64 64 NE 10 17 29.68 1005 10 16 0.02 0.51
5:06 pm 17:06 Mostly Cloudy with Nearby Thunderstorms 80 26.7 64 17.8 58 58 NE 7 11 29.56 1001 10 16 0.00 0.00
5:16 pm 17:16 Partly Cloudy 83 28.3 65 18.3 55 55 NE 6 9 29.56 1001 10 16 0.00 0.00
5:24 pm 17:24 Partly Cloudy with Nearby Thunderstorms 86 30 68 20 55 55 E 5 7 29.53 1000 10 16 0.00 0.00
5:53 pm 17:53 Sunny 85 29.4 64 17.8 50 50 ESE 15 24 29.64 1004 10 16 0.00 0.00
6:21 pm 18:21 Partly Cloudy with Nearby Thunderstorms 79 26 63 17 58 58 ESE 15 24 29.53 1000 10 16 0.00 0.00
6:53 pm 18:53 Partly Cloudy with Thunderstorms 78 25.6 63 17.2 60 60 E 13 20 29.61 1003 10 16 0.00 0.00
7:32 pm 19:32 Windy with Storms Likely 73 23 63 17 69 69 NE 29 46 29.56 1001 10 16 0.00 0.00
7:40 pm 19:40 Windy with Storms Likely 73 23 61 16 65 65 NE 22 35 29.56 1001 10 16 0.00 0.00
7:53 pm 19:53 Mostly Cloudy with Nearby Thunderstorms 74 23.3 61 16.1 64 64 ENE 21 33 29.63 1003 10 16 0.01 0.25
8:12 pm 20:12 Mostly Sunny 73 23 63 17 69 69 ENE 10 17 29.56 1001 10 16 0.00 0.00
8:53 pm 20:53 Sunny 73 22.8 62 16.7 69 69 E 13 20 29.64 1004 10 16 0.00 0.00
9:27 pm 21:27 Clear 74 23.3 61 16.1 64 64 N 17 28 29.65 1004 10 16 0.00 0.00
9:53 pm 21:53 Clear 68 20 59 15 73 73 NNE 24 39 29.71 1006 10 16 0.00 0.00
10:53 pm 22:53 Clear 66 18.9 58 14.4 75 75 ESE 10 17 29.72 1006 10 16 0.00 0.00
11:53 pm 23:53 Clear 64 17.8 59 15 84 84 E 5 7 29.75 1008 10 16 0.00 0.00

Powered by AerisWeather